Regional Weather Roundup
Issued by NWS

Home | Current Version | Previous Version | Text Only | Print | Product List | Glossary Off
Versions: 1 2 3 4 5 6 7 8 9 10 11 12 13 14 15 16 17 18 19 20 21 22 23 24 25 26 27 28 29 30 31 32 33 34 35 36 37 38 39 40 41 42 43 44 45 46 47 48 49 50

000
ASUS43 KLOT 132210
RWRIL

ILLINOIS REGIONAL WEATHER ROUNDUP
NATIONAL WEATHER SERVICE CHICAGO/ROMEOVILLE IL
500 PM CDT SUN JUL 13 2014

NOTE: "FAIR" INDICATES FEW OR NO CLOUDS BELOW 12,000 FEET WITH NO
SIGNIFICANT WEATHER AND/OR OBSTRUCTIONS TO VISIBILITY.

* THESE STATIONS ARE NOT UNDER NWS QUALITY CONTROL. THEY ALSO MAY NOT
  REPORT WEATHER SUCH AS PRECIPITATION OR FOG.

ILZ001-002-007-009-015-016-024-132300-
NORTHWEST ILLINOIS

CITY           SKY/WX    TMP DP  RH WIND       PRES   REMARKS
MOLINE         MOSUNNY   83  66  56 SW13      29.91F HX  85
STERLING*      SUNNY     84  68  58 W9        29.90F HX  87
SAVANNA*       MOSUNNY   82  63  52 W9        29.90F HX  83
$$

ILZ003-004-008-010-011-017-018-132300-
NORTH CENTRAL ILLINOIS

CITY           SKY/WX    TMP DP  RH WIND       PRES   REMARKS
ROCKFORD       PTSUNNY   79  68  69 W8        29.90F HX  81
FREEPORT*      PTSUNNY   79  68  68 W14       29.92F HX  81
ROCHELLE*      SUNNY     82  65  56 W12       29.91F HX  84
DE KALB*       SUNNY     81  65  59 W9G20     29.91F HX  82
PERU*          SUNNY     83  65  54 W6        29.92F HX  85
$$

ILZ005-006-012>014-019>023-132300-
NORTHEAST ILLINOIS

CITY           SKY/WX    TMP DP  RH WIND       PRES   REMARKS
CHICAGO-OHARE  MOSUNNY   84  60  44 W12       29.88F HX  84
CHICAGO-MIDWAY MOSUNNY   85  61  44 NW9G18    29.89F HX  85
AURORA         SUNNY     83  66  56 W10       29.90F HX  85
LANSING*       SUNNY     83  56  39 NW7       29.90F HX  82
JOLIET*        SUNNY     83  59  44 W5        29.91F HX  83
WAUKEGAN       MOSUNNY   83  61  47 VRB7      29.86F HX  83
DUPAGE AIRPORT SUNNY     84  65  52 W9        29.89F HX  86
KANKAKEE*      SUNNY     82  67  60 W8        29.93S HX  84
WHEELING       MOSUNNY   85  60  42 W9        29.89F HX  85
MORRIS*        SUNNY     83  65  54 W7        29.91F HX  85
ROMEOVILLE*    SUNNY     82  62  50 W9        29.90F HX  82
NORTHERLY ISL    N/A     78  59  51 N2          N/A
$$

LMZ740>746-132300-
SOUTHERN LAKE MICHIGAN

STATION/POSITION SKY/WX   TEMP    WIND        PRES    VSBY  WAVE
                          AIR SEA DIR/SP/G                  HT/PER
                          (F)     (DEG/KT/KT) (MB)    (MI)  (FT/S)
SOUTHERN BUOY              65 63  190/ 10/ 12 1011.4F         1
WAUKEGAN HARBOR            82     280/ 11/ 18 1011.9F
HARRISON CRIB              74     130/ 12/ 13   N/A
BURNHAM HARBOR             82      80/  1/ 11   N/A
CALUMET HARBOR             84     290/  6/ 12 1012.9S
MICHIGAN CITY              78     220/  3/  3   N/A
$$

ILZ025>027-034>036-040-047-049-050-058-095>099-132300-
WEST-CENTRAL ILLINOIS

CITY           SKY/WX    TMP DP  RH WIND       PRES   REMARKS
QUINCY         SUNNY     84  67  56 CALM      29.96S HX  86
GALESBURG*     SUNNY     86  66  51 W5        29.94F HX  89
MACOMB*        SUNNY     82  68  63 NW5       29.97F HX  84
JACKSONVILLE*  MOSUNNY   83  70  64 CALM      29.96F HX  88
PITTSFIELD*    CLOUDY    85  70  61 CALM      29.96F HX  89
$$

ILZ028>032-037-038-041>044-048-051>054-059>061-132300-
CENTRAL ILLINOIS

CITY           SKY/WX    TMP DP  RH WIND       PRES   REMARKS
PONTIAC        SUNNY     82  68  61 SW3       29.93F HX  85
BLOOMINGTON    MOSUNNY   83  66  56 VRB6      29.96F HX  85
DECATUR        MOSUNNY   83  68  60 W6        29.95S HX  86
PEORIA         MOSUNNY   83  69  62 SW8       29.94F HX  86
LACON*         SUNNY     83  64  51 W5        29.92F HX  85
LINCOLN*       MOSUNNY   84  68  57 CALM      29.92S HX  87
SPRINGFIELD    MOSUNNY   87  70  56 NW6       29.95F HX  92
TAYLORVILLE    SUNNY     79  70  73 W3        29.95S HX  81
$$

ILZ033-039-045-046-055>057-062-063-132300-
EAST-CENTRAL ILLINOIS

CITY           SKY/WX    TMP DP  RH WIND       PRES   REMARKS
CHAMPAIGN      MOSUNNY   83  71  67 NW8       29.95S HX  87
RANTOUL*       SUNNY     83  67  58 W6        29.95F HX  86
MATTOON        CLOUDY    82  71  69 NW10      29.94S HX  86
PARIS*         PTSUNNY   83  73  70 NW8       29.94S HX  89
$$

ILZ079-100>102-132300-
SOUTHWEST ILLINOIS

CITY           SKY/WX    TMP DP  RH WIND       PRES   REMARKS
ALTON          PTSUNNY   86  75  70 W8        29.94F HX  95
BELLEVILLE     MOSUNNY   87  73  63 SW3       29.93S HX  95
CAHOKIA*       CLOUDY    87  71  58 SW5       29.93S HX  93
SPARTA*        MOSUNNY   86  72  62 W5        29.95F HX  92
$$

ILZ064>066-069>071-074>076-080>082-084>086-088>090-092>094-132300-
SOUTH-CENTRAL ILLINOIS

CITY           SKY/WX    TMP DP  RH WIND       PRES   REMARKS
CARBONDALE     MOSUNNY   88  72  58 SE5       29.93F HX  94
CAIRO*         PTSUNNY   93  73  51 SW7       29.94F HX 101
MARION         MOSUNNY   82  77  83 NE7       29.96S HX  91
MT. VERNON     MOSUNNY   90  70  51 SW12      29.93F HX  95
CENTRALIA*     MOSUNNY   95  69  42 W6        29.94S HX 100
SALEM*         MOSUNNY   91  72  53 W8        29.93F HX  98
METROPOLIS*    PTSUNNY   92  68  45 SW8       29.94F HX  96
$$

ILZ067-068-072-073-078-083-087-091-132300-
SOUTHEAST ILLINOIS

CITY           SKY/WX    TMP DP  RH WIND       PRES   REMARKS
FLORA*         SUNNY     89  71  54 W8        29.93F HX  94
HARRISBURG*    MOSUNNY   87  73  62 W5        29.95S HX  94
ROBINSON*      PTSUNNY   85  77  76 NW7       29.92F HX  96
CARMI*         SUNNY     91  74  56 SW8       29.92F HX 101
$$

ABBREVIATIONS USED IN REMARKS
   TC - TEMPERATURE IN CELSIUS
  WCI - WIND CHILL INDEX
   HX - HEAT INDEX
  VSB - VISIBILITY
$$



USA.gov is the U.S. government's official web portal to all federal, state and local government web resources and services.